Date String (YYYY-MM-DD hh:mm:ss) UTC,Instrument flags,absolute air pressure of the measurement (hPa),sample flow rate (lpm),inlet stack bypass flow (lpm),air temperature of the measurement (°C),ambient temperature measured by the external sensor (°C),aerosol sample conditioner tube jacket temperature (°C),OPC LED temperature (°C),internal box temperature (°C),relative humidity of the measurement (%),span deviation,mass concentration of particles derived from Lorenz-Mie calculation of OPC scattering (μg/m³),mass concentration of particles derived from Lorenz-Mie calculation of OPC scattering (μg/m³),mass concentration of particles derived from Lorenz-Mie calculation of OPC scattering (μg/m³)
DateTimeUTC,F1_M11,P_M11,Q1_M11,Q2_M11,T1_M11,T2_M11,T3_M11,T4_M11,T5_M11,U1_M11,ZSPAN_M11,X2_M11,X0_M11,X1_M11
2023-07-24 10:00:00,SystemResetWarning,0834.3,5.00,000.00,029.3,027.6,000.0,037.8,030.9,19.9,0000.0,0004.04,0007.82,0003.58
2023-07-24 10:01:00,SystemResetWarning,0834.4,5.00,000.00,029.3,027.7,000.0,037.8,030.9,19.7,0000.0,0004.02,0007.77,0003.57
2023-07-24 10:02:00,SystemResetWarning,0834.4,5.00,000.00,029.3,027.9,000.0,037.8,031.0,19.6,0000.0,0004.00,0007.89,0003.56
2023-07-24 10:03:00,SystemResetWarning,0834.4,5.00,000.00,029.3,028.0,000.0,037.8,031.0,19.6,0000.0,0003.99,0007.80,0003.56
2023-07-24 10:04:00,SystemResetWarning,0834.4,4.99,000.00,029.4,028.1,000.0,037.8,031.0,19.2,0000.0,0003.97,0008.00,0003.56
2023-07-24 10:05:00,SystemResetWarning,0834.4,5.00,000.00,029.4,028.2,000.0,037.8,031.1,19.4,0000.0,0003.99,0008.04,0003.56
2023-07-24 10:06:00,SystemResetWarning,0834.4,5.01,000.00,029.5,028.2,000.0,037.8,031.1,20.5,0000.0,0003.99,0008.08,0003.56
2023-07-24 10:07:00,SystemResetWarning,0834.5,5.00,000.00,029.5,028.3,000.0,037.9,031.1,21.0,0000.0,0003.97,0007.96,0003.56
2023-07-24 10:08:00,SystemResetWarning,0834.5,5.00,000.00,029.5,028.4,000.0,037.9,031.2,20.7,0000.0,0003.94,0007.58,0003.55
2023-07-24 10:09:00,SystemResetWarning,0834.5,5.00,000.00,029.5,028.4,000.0,037.9,031.2,20.4,0000.0,0003.94,0007.59,0003.55
2023-07-24 10:10:00,SystemResetWarning,0834.5,5.00,000.00,029.6,027.8,000.0,037.9,031.2,20.2,0000.0,0003.92,0007.54,0003.56
2023-07-24 10:11:00,SystemResetWarning,0834.4,4.99,000.00,029.5,025.9,000.0,037.8,031.0,20.8,0000.0,0003.91,0007.44,0003.56
2023-07-24 10:12:00,SystemResetWarning,0834.4,5.02,000.00,029.4,025.4,000.0,037.7,030.8,22.5,0000.0,0003.89,0007.39,0003.56
2023-07-24 10:13:00,SystemResetWarning,0834.4,5.01,000.00,029.3,025.6,000.0,037.7,030.6,22.3,0000.0,0003.91,0007.19,0003.56
2023-07-24 10:14:00,SystemResetWarning,0834.4,5.00,000.00,029.3,025.9,000.0,037.7,030.6,21.3,0000.0,0003.89,0007.45,0003.54
2023-07-24 10:15:00,SystemResetWarning,0834.5,5.00,000.00,029.2,026.3,000.0,037.7,030.6,21.0,0000.0,0003.89,0007.36,0003.52
2023-07-24 10:16:00,SystemResetWarning,0834.4,5.00,000.00,029.2,026.7,000.0,037.8,030.7,21.1,0000.0,0003.87,0007.38,0003.51
2023-07-24 10:17:00,SystemResetWarning,0834.3,5.00,000.00,029.2,027.0,000.0,037.8,030.7,20.4,0000.0,0003.86,0007.31,0003.50
2023-07-24 10:18:00,SystemResetWarning,0834.4,4.99,000.00,029.3,027.2,000.0,037.8,030.8,20.0,0000.0,0003.83,0007.19,0003.48
2023-07-24 10:19:00,SystemResetWarning,0834.4,5.00,000.00,029.3,027.5,000.0,037.8,030.9,19.9,0000.0,0003.82,0007.14,0003.47
2023-07-24 10:20:00,SystemResetWarning,0834.4,5.00,000.00,029.3,027.6,000.0,037.8,030.9,19.5,0000.0,0003.81,0007.09,0003.46
2023-07-24 10:21:00,SystemResetWarning,0834.4,5.00,000.00,029.3,027.8,000.0,037.8,030.9,19.3,0000.0,0003.77,0006.97,0003.44
2023-07-24 10:22:00,SystemResetWarning,0834.4,5.01,000.00,029.3,027.9,000.0,037.8,031.0,19.6,0000.0,0003.74,0006.85,0003.43
2023-07-24 10:23:00,SystemResetWarning,0834.4,5.01,000.00,029.4,028.0,000.0,037.8,031.0,19.4,0000.0,0003.73,0006.87,0003.42
2023-07-24 10:24:00,SystemResetWarning,0834.4,5.00,000.00,029.4,028.1,000.0,037.8,031.1,19.5,0000.0,0003.71,0007.23,0003.41
2023-07-24 10:25:00,SystemResetWarning,0834.3,5.00,000.00,029.4,028.2,000.0,037.8,031.1,19.5,0000.0,0003.69,0006.58,0003.41
2023-07-24 10:26:00,SystemResetWarning,0834.4,4.99,000.00,029.5,028.3,000.0,037.9,031.1,19.1,0000.0,0003.67,0005.99,0003.42
2023-07-24 10:27:00,SystemResetWarning,0834.4,5.00,000.00,029.5,028.3,000.0,037.9,031.2,19.0,0000.0,0003.68,0006.07,0003.44
2023-07-24 10:28:00,SystemResetWarning,0834.5,5.00,000.00,029.5,028.4,000.0,037.9,031.2,19.0,0000.0,0003.71,0006.95,0003.45
2023-07-24 10:29:00,SystemResetWarning,0834.5,4.99,000.00,029.6,028.4,000.0,037.9,031.2,19.2,0000.0,0003.74,0007.28,0003.46
2023-07-24 10:30:00,SystemResetWarning,0834.5,5.00,000.00,029.6,028.5,000.0,038.0,031.3,19.5,0000.0,0003.74,0007.25,0003.47
2023-07-24 10:31:00,SystemResetWarning,0834.5,5.00,000.00,029.6,027.5,000.0,037.9,031.2,19.6,0000.0,0003.72,0007.13,0003.48
2023-07-24 10:32:00,SystemResetWarning,0834.5,5.01,000.00,029.5,025.7,000.0,037.8,030.9,19.6,0000.0,0003.71,0007.11,0003.47
2023-07-24 10:33:00,SystemResetWarning,0834.5,5.01,000.00,029.4,025.4,000.0,037.7,030.7,19.7,0000.0,0003.71,0007.28,0003.47
2023-07-24 10:34:00,SystemResetWarning,0834.5,5.01,000.00,029.3,025.6,000.0,037.7,030.5,19.9,0000.0,0003.73,0007.33,0003.48
2023-07-24 10:35:00,SystemResetWarning,0834.5,4.99,000.00,029.3,026.0,000.0,037.8,030.6,19.9,0000.0,0003.72,0007.04,0003.47
2023-07-24 10:36:00,SystemResetWarning,0834.5,4.99,000.00,029.3,026.4,000.0,037.8,030.6,19.9,0000.0,0003.72,0006.94,0003.47
2023-07-24 10:37:00,SystemResetWarning,0834.5,5.00,000.00,029.3,026.7,000.0,037.8,030.7,19.7,0000.0,0003.71,0006.86,0003.46
2023-07-24 10:38:00,SystemResetWarning,0834.5,5.00,000.00,029.3,027.0,000.0,037.8,030.8,19.9,0000.0,0003.70,0006.80,0003.44
2023-07-24 10:39:00,SystemResetWarning,0834.5,5.01,000.00,029.3,027.3,000.0,037.8,030.8,19.9,0000.0,0003.66,0005.96,0003.42
2023-07-24 10:40:00,SystemResetWarning,0834.5,4.99,000.00,029.3,027.5,000.0,037.8,030.9,19.7,0000.0,0003.63,0005.62,0003.40
2023-07-24 10:41:00,SystemResetWarning,0834.5,5.00,000.00,029.3,027.7,000.0,037.8,030.9,19.6,0000.0,0003.64,0005.78,0003.38
2023-07-24 10:42:00,SystemResetWarning,0834.5,4.99,000.00,029.3,027.8,000.0,037.8,030.9,19.4,0000.0,0003.66,0006.19,0003.37
2023-07-24 10:43:00,SystemResetWarning,0834.5,5.00,000.00,029.4,027.9,000.0,037.8,031.0,19.4,0000.0,0003.65,0006.67,0003.35
2023-07-24 10:44:00,SystemResetWarning,0834.5,5.00,000.00,029.4,028.0,000.0,037.8,031.0,19.2,0000.0,0003.65,0006.54,0003.34
2023-07-24 10:45:00,SystemResetWarning,0834.5,5.00,000.00,029.4,028.1,000.0,037.8,031.1,18.9,0000.0,0003.64,0006.83,0003.33
2023-07-24 10:46:00,SystemResetWarning,0834.5,5.00,000.00,029.4,028.2,000.0,037.9,031.1,19.1,0000.0,0003.64,0007.00,0003.34
2023-07-24 10:47:00,SystemResetWarning,0834.5,4.99,000.00,029.5,028.3,000.0,037.9,031.2,19.4,0000.0,0003.64,0007.23,0003.35
2023-07-24 10:48:00,SystemResetWarning,0834.5,4.99,000.00,029.5,028.3,000.0,037.9,031.2,18.9,0000.0,0003.66,0007.89,0003.35
2023-07-24 10:49:00,SystemResetWarning,0834.5,5.00,000.00,029.5,028.4,000.0,037.9,031.2,19.1,0000.0,0003.65,0007.84,0003.35
2023-07-24 10:50:00,SystemResetWarning,0834.5,5.01,000.00,029.6,028.5,000.0,037.9,031.2,19.1,0000.0,0003.64,0007.82,0003.35
2023-07-24 10:51:00,SystemResetWarning,0834.5,5.01,000.00,029.6,028.5,000.0,038.0,031.3,19.0,0000.0,0003.65,0007.85,0003.36
2023-07-24 10:52:00,SystemResetWarning,0834.4,5.00,000.00,029.6,028.1,000.0,038.0,031.3,18.8,0000.0,0003.63,0007.77,0003.37
2023-07-24 10:53:00,SystemResetWarning,0834.4,4.98,000.00,029.6,026.1,000.0,037.8,031.1,18.8,0000.0,0003.62,0007.92,0003.38
2023-07-24 10:54:00,SystemResetWarning,0834.4,5.02,000.00,029.5,025.4,000.0,037.7,030.8,18.8,0000.0,0003.62,0007.87,0003.38
2023-07-24 10:55:00,SystemResetWarning,0834.4,5.00,000.00,029.4,025.5,000.0,037.8,030.6,18.7,0000.0,0003.63,0008.51,0003.38
2023-07-24 10:56:00,SystemResetWarning,0834.4,4.99,000.00,029.3,025.9,000.0,037.8,030.6,18.9,0000.0,0003.62,0008.91,0003.39
2023-07-24 10:57:00,SystemResetWarning,0834.4,5.00,000.00,029.3,026.3,000.0,037.8,030.7,19.1,0000.0,0003.61,0009.14,0003.37
2023-07-24 10:58:00,SystemResetWarning,0834.5,5.01,000.00,029.3,026.6,000.0,037.8,030.7,19.2,0000.0,0003.61,0008.58,0003.36
2023-07-24 10:59:00,SystemResetWarning,0834.5,5.00,000.00,029.3,026.9,000.0,037.8,030.8,19.5,0000.0,0003.59,0008.31,0003.35
